Find Starlink 11305

NORAD ID: 61247 Int'l Des: 2024-175 Owner: SPXS Country: US Constellation: starlink operational
LEOCIRCULAR

当前视图

正在加载3D地球...

About Starlink 11305

Starlink 11305 (NORAD 61247) is a starlink constellation satellite (v2 mini d2c) launched Sep 25, 2024 by SPXS of US. It operates in LEO, CIRCULAR orbit with a mass of 960.00 kg.

关于 Starlink 11305

正在加载描述...

即将过境

Passes for default location (London). Set your location on the main map for personalized predictions.

高度历史

Loading altitude history...

两行轨道根数

1 61247U 24175E 26170.58869138 .00000174 00000-0 62841-5 0 9991
2 61247 53.1569 273.7362 0000567 103.6871 256.4210 15.69718742 99373
Epoch: Jun 19, 2026 • Age: 20 hours

当前状态

高度 363.1 km
速度 7.70 km/s
星下点 40.25°N, 113.23°W
发射日期 Sep 25, 2024
运行时间 1.7 years
类型 internet

技术详情

分类 Payload
质量 960.00 kg
干质量 910.00 kg
总质量 960.00 kg
长度 0.30 m
直径 4.10 m
跨度 29.00 m
形状 Box + pan
制造商 SPXS
平台类型 Starlink V2MD
阶段状态 In Orbit
所有者/国家 SPXS/US

Most Searched